Regional Weather Roundup
Issued by NWS Newport/Morehead, NC

Current Version | Previous Version | Graphics & Text | Print | Product List | Glossary Off
Versions: 1 2 3 4 5 6 7 8 9 10 11 12 13 14 15 16 17 18 19 20 21 22 23 24 25 26 27 28 29 30 31 32 33 34 35 36 37 38 39 40 41 42 43 44 45 46 47 48 49 50

000
ASUS42 KMHX 310613
RWRMHX
WEATHER ROUNDUP FOR EASTERN NORTH CAROLINA
NATIONAL WEATHER SERVICE NEWPORT/MOREHEAD CITY NC
200 AM EDT FRI JUL 31 2015

NOTE: "FAIR" INDICATES FEW OR NO CLOUDS BELOW 12,000 FEET
WITH NO SIGNIFICANT WEATHER AND/OR OBSTRUCTIONS TO VISIBILITY

NCZ015>017-031-032-045>047-102-103-310700-
NORTH COAST

CITY           SKY/WX    TMP DP  RH WIND       PRES   REMARKS
EDENTON          N/A     79  74  85 SW3       29.89F
ELIZABETH CITY PTCLDY    77  75  93 SW5       29.88F
KITTY HAWK     PTCLDY    81  75  82 S6        29.87F
MANTEO         PTCLDY    81  76  84 SW10      29.88F

$$

NCZ045>047-081-094-103-104-310700-
CENTRAL COAST

CITY           SKY/WX    TMP DP  RH WIND       PRES   REMARKS
FRISCO         MOCLDY    81  76  84 S7        29.88F
SWANQUARTER      N/A     81 N/A N/A S5        29.85S

$$

NCZ095-097-098-100-101-310700-
SOUTHERN COAST

CITY           SKY/WX    TMP DP  RH WIND       PRES   REMARKS
BEAUFORT       PTCLDY    77  76  96 CALM      29.87F
CEDAR ISLAND     N/A     79 N/A N/A CALM      29.91F
JACKSONVILLE   CLEAR     76  74  93 W3        29.87F
PINEY ISLAND   PTCLDY   N/A N/A N/A MISG      29.87F
WILMINGTON     PTCLDY    77  75  93 CALM      29.88F


$$

NCZ011>013-027>030-043-044-078>080-089-090>093-098-310700-
COASTAL PLAIN

CITY           SKY/WX    TMP DP  RH WIND       PRES   REMARKS
AHOSKIE        PTCLDY    77  74  91 CALM      29.88F
CLINTON        PTCLDY    78  76  94 CALM      29.89F
ELIZABETHTOWN  PTCLDY    80  76  85 CALM      29.88F
GOLDSBORO      PTCLDY    79  76  92 SE1       29.86F
GREENVILLE     MOCLDY    79  77  94 CALM      29.91F
HAVELOCK       CLEAR     76  74  93 SE3       29.88F
KENANSVILLE    PTCLDY   N/A N/A N/A CALM      29.90S
KINSTON        PTCLDY    77  75  93 CALM      29.89F
NEW BERN       CLEAR     74  72  93 CALM      29.89F
RICHLANDS      CLEAR     73  68  83 CALM      29.88F
ROCKY MOUNT    MOCLDY    77  75  93 CALM      29.89F
WASHINGTON     PTCLDY    78  74  89 CALM      29.89F
WHITEVILLE     PTCLDY    78  74  90 CALM      29.88S

$$

AMZ130-135-150-152-154-156-158-170-250-252-270-ANZ085-086-088-633-658-670-310700-
MARINE OBSERVATIONS

STATION/POSITION TIME  TEMP    WIND        PRES    WAVE   SWELL
                       AIR SEA DIR/SP/G            HT/PER HT/PER
                 (UTC) (F)     (DEG/KT/KT) (MB)    (FT/S) (FT/S)
CHESAPEAKE LIGHT 0600   81     220/ 15/ 16 1012.0
64 E VA BEACH    0550   81 82  200/ 14/ 16 1011.6    4/ 7   3/ 7
DUCK             0500   81 64  180/ 12/ 14 1011.4
2 E DUCK         0511      69                N/A     2/10
OREGON INLET     0500   82 83  180/ 12/ 14 1012.3
13E OREGON INLT  0600      81                N/A     4/ 6
HATTERAS CG      0500   81 84  170/  5/  7 1012.1
DIAMOND BUOY     0550   83 86  160/ 14/ 16 1011.8    5/ 8   3/ 8
CAPE LOOKOUT     0600   81      CALM  /  1 1011.1
BEAUFORT LAB     0500   81 83  180/  1/  2 1011.5
30 SE NEW RVR IN NOT AVBL
27 SE WRIGHTSVLE 0500   79 82  310/  4/  6   N/A
5 SE WRIGHTSVLE  0508   82 83  270/  8/ 10 1012.0
225 S CAPE HAT   0550   80 81  210/ 21/ 27 1013.1   12/10
41 SE CHARLESTON 0550   83 85  250/ 14/ 14 1012.2    3/ 8   2/ 8

$$



USA.gov is the U.S. government's official web portal to all federal, state and local government web resources and services.